KUIPER-00193

导读

KUIPER-00193(NORAD编号68576)是亚马逊柯伊伯(Project Kuiper)低轨宽带互联网星座中的一颗卫星,该星座计划在近地轨道部署超过3200颗卫星,为全球提供高速宽带服务。该卫星由SpaceX猎鹰9号火箭于2025年发射,进入约465千米的低轨道后,将自主爬升最终进入650千米左右的工作轨道。它采用多用户波束相控阵天线技术,支持灵活容量分配,可实现星上数据再生与交换,依靠亚马逊地面网络完成组网运营,是柯伊伯星座商用部署阶段的重要组成卫星,助力星座在2026年为北美及欧洲部分国家提供初始服务。

Basic Information
目录编号:
68576
目录名称:
KUIPER-00193
国际标识:
2026-072D
轨道中心:
EARTH
卫星名称:
KUIPER-00193
卫星全名:
KUIPER-00193
卫星状态:
在轨 (已飞行160 天)
发射日期:
2026-04-04 UTC
国别 :
美国 (US)
星等 :
--
This satellite is enrolled in the Space Conjunction Data Service (SCDS) and the current flight risk assessment level is: No High Risk
Orbit Information
数据来源 国际轨道数据 AOE轨道数据
星历时间 2026-09-11T11:16:04+0800
15小时前
查看轨道信息
2026-09-10T23:00:00+0800
1天前
查看轨道信息
半长轴 7007.678km 7007.695km
偏心率 0.0001306 0.0001266
轨道倾角 51.905° 51.904°
近地点辐角 89.300° 78.858°
升交点赤经 163.125° 165.389°
平近点角 270.811° 76.278°
近地点 628.625km 628.67km
远地点 630.457km 630.446km
周期 97.302分钟 97.302分钟
每日圈数 14.799314 14.79926
Detailed Information
使用方式:
暂无
2D Orbit Map
3D Orbit Map
Orbit Altitude Analysis Chart
Orbit Inclination Analysis Chart
Orbit Comprehensive Analysis Chart
View Comprehensive Chart
Conjunction Data List
Event ID Objects TCA Miss Dist (km) Collision Risk Probability Collision Risk Index (CRI) Action
CDM_260912-161206-007906-857625
2026-09-12T
16:12:24+0000
1.312 km
极远距离
9.683662E-6 低风险 0.55
CDM_260912-201506-007906-857623
2026-09-12T
20:15:41+0000
1.705 km
极远距离
4.145134E-6 低风险 0.47
CDM_260912-165906-076106-857621
2026-09-12T
16:59:08+0000
1.913 km
极远距离
2.728729E-6 低风险 0.44
Miss Distance Evolution Trend with All Objects
Collision Probability Evolution Trend with All Objects